DLH1812 EDDM-LEBL

Flight info

Callsign DLH1812
Flight time N/A
Altitude 37000
Route TURBU7S TURBU Y107 TOBSO DCT BAKOR DCT GEKBA DCT VAMTU DCT KOLON DCT GANGU DCT PADKO DCT DIVKO DCT NILDU N975 BISBA
Aircraft A320/M-SDE3FGHIRWY/LB1

Departure

Time 2026-05-05 09:09
Airport Munich Airport (EDDM)

Arrival

Time N/A
Airport Josep Tarradellas Barcelona-El Prat Airport (LEBL)
Time Latitude Longitude Altitude Speed Heading
2026-05-05 08:31 48.35133 11.79358 1485 ft 0 kts 263°
2026-05-05 08:36 48.35058 11.79375 1476 ft 0 kts 263°
2026-05-05 09:01 48.35058 11.79379 1485 ft 3 kts 262°
2026-05-05 09:01 48.35064 11.79417 1475 ft 4 kts 247°
2026-05-05 09:02 48.35077 11.79451 1471 ft 4 kts 225°
2026-05-05 09:02 48.35099 11.79475 1476 ft 4 kts 201°
2026-05-05 09:02 48.35124 11.79485 1485 ft 4 kts 186°
2026-05-05 09:02 48.35151 11.79488 1480 ft 4 kts 188°
2026-05-05 09:03 48.35172 11.79497 1475 ft 3 kts 250°
2026-05-05 09:03 48.35173 11.79500 1485 ft 0 kts 263°
2026-05-05 09:04 48.35168 11.79492 1479 ft 3 kts 216°
2026-05-05 09:04 48.35174 11.79500 1485 ft 2 kts 186°
2026-05-05 09:06 48.35174 11.79501 1485 ft 1 kts 169°
2026-05-05 09:07 48.35104 11.79514 1482 ft 20 kts 173°
2026-05-05 09:07 48.34956 11.79540 1481 ft 17 kts 173°
2026-05-05 09:07 48.34832 11.79558 1485 ft 18 kts 181°
2026-05-05 09:07 48.34699 11.79557 1485 ft 20 kts 174°
2026-05-05 09:08 48.34582 11.79462 1479 ft 21 kts 234°
2026-05-05 09:08 48.34464 11.79216 1480 ft 37 kts 234°
2026-05-05 09:08 48.34359 11.78879 1480 ft 33 kts 262°
2026-05-05 09:08 48.34325 11.78458 1485 ft 68 kts 263°
2026-05-05 09:09 48.34233 11.77284 1476 ft 151 kts 263°
2026-05-05 09:09 48.34095 11.75517 1962 ft 179 kts 264°
2026-05-05 09:09 48.33958 11.73599 2767 ft 185 kts 263°
2026-05-05 09:09 48.33492 11.71760 3219 ft 202 kts 227°
2026-05-05 09:10 48.32206 11.70794 3595 ft 218 kts 188°
2026-05-05 09:10 48.30673 11.70641 4299 ft 222 kts 182°
2026-05-05 09:10 48.29139 11.70760 5207 ft 223 kts 167°
2026-05-05 09:10 48.27706 11.71731 5889 ft 237 kts 146°
2026-05-05 09:11 48.26298 11.73221 6373 ft 259 kts 146°
2026-05-05 09:11 48.24776 11.74805 7061 ft 271 kts 146°
2026-05-05 09:11 48.23199 11.76425 7953 ft 277 kts 147°
2026-05-05 09:11 48.21599 11.78054 8867 ft 280 kts 147°